This is the latest recevied weather packets stored in our database for station/object DH4SBM. If no packets are shown the sender has not sent any weather packets the latest 10 day(s).
| Time | Temp. | Humidity | Pressure | Rain* | Wind** | Luminosity | Snow |
|---|---|---|---|---|---|---|---|
| 1777873703 | 12.22° C | 83% | 1016.3 hPa | 0 mm | - | 213 W/m² | - |
| 1777873103 | 11.67° C | 84% | 1016.3 hPa | 0 mm | - | 142 W/m² | - |
| 1777872503 | 11.67° C | 84% | 1016.3 hPa | 0 mm | - | 120 W/m² | - |
| 1777871903 | 11.11° C | 85% | 1016.2 hPa | 0 mm | - | 149 W/m² | - |
| 1777871302 | 10.56° C | 85% | 1016.2 hPa | 0 mm | - | 128 W/m² | - |
| 1777870703 | 10.56° C | 85% | 1016.2 hPa | 0 mm | - | 69 W/m² | - |
| 1777870103 | 10.56° C | 84% | 1016.2 hPa | 0 mm | - | 53 W/m² | - |
| 1777869502 | 10.56° C | 84% | 1016.1 hPa | 0 mm | - | 28 W/m² | - |
| 1777869338 | 10.56° C | 84% | 1016.1 hPa | 0 mm | - | 28 W/m² | - |
| 1777868738 | 11.11° C | 84% | 1016.1 hPa | 0 mm | - | 14 W/m² | - |
| 1777868138 | 11.11° C | 83% | 1016.1 hPa | 0 mm | - | 7 W/m² | - |
| 1777867538 | 11.11° C | 83% | 1016.1 hPa | 0 mm | - | 0 W/m² | - |
| 1777866938 | 11.11° C | 82% | 1016.1 hPa | 0 mm | - | 0 W/m² | - |
| 1777866338 | 11.11° C | 82% | 1016 hPa | 0 mm | - | 0 W/m² | - |
| 1777865738 | 11.11° C | 82% | 1016.1 hPa | 0 mm | - | 0 W/m² | - |
| 1777865138 | 11.11° C | 82% | 1016 hPa | 0 mm | - | 0 W/m² | - |
| 1777864538 | 11.11° C | 81% | 1016.1 hPa | 0 mm | - | 0 W/m² | - |
| 1777863938 | 11.11° C | 81% | 1016.1 hPa | 0 mm | - | 0 W/m² | - |
| 1777863338 | 11.67° C | 80% | 1016.1 hPa | 0 mm | - | 0 W/m² | - |
| 1777862738 | 11.67° C | 82% | 1016.2 hPa | 0 mm | - | 0 W/m² | - |
| 1777862138 | 11.67° C | 82% | 1016.2 hPa | 0 mm | - | 0 W/m² | - |
| 1777861538 | 12.22° C | 80% | 1016.2 hPa | 0 mm | - | 0 W/m² | - |
| 1777860938 | 12.22° C | 80% | 1016.2 hPa | 0 mm | - | 0 W/m² | - |
| 1777860338 | 12.22° C | 78% | 1016.2 hPa | 0 mm | - | 0 W/m² | - |
| 1777859738 | 12.78° C | 77% | 1016.1 hPa | 0 mm | - | 0 W/m² | - |
* Rain latest hour (hover to see other rain measurements)
** Current wind speed in m/s (hover to see current wind gust speed)